1
2
3
4 106834 303373_3e4cee13b3_z.jpg
4 10802802545_a9b4132ffc_z.jpg
4 10802961384_71fee4c235_z.jpg

KOUN 271720Z 2718/2818 25007KT P6SM FEW250
KOUN 272155Z AUTO 24005KT 10SM CLR 26/10 A3003 RMK AO2

News

Movie Night  Join us on Oct 14 to watch Space Camp (1986) on the hangar big screen.  Admission is free but seating is limited.  Tickets will be available here starting Oct 7 at noon.  Snacks will be for sale by the Sooner Aviation Club and seating is provided.

Field Trips and School Programs  Want to engage your class with enriching STEM activities?  Fill out the School Activity Survey on our Teacher page today.  Log-in and make sure you have Teacher access by updating your info in the menu on the left.

Summer Camp  2017 Summer camp schedules will be posted by November 1st.  Registration will open on March 1st.  Visit the summer camp page.  Learn more about summer camp and scholarships in our FAQ

Are you interested in learning how to decode the Terminal Area Forecast (TAF) located in the upper right corner of this News section?  Click here to link to the Aviation Weather Center explanation.

If you have attended any of our events, we would love to hear your feedback.  Click here for the form.  We would also love any recommendations you wanted to leave on Facebook.